Olathe, KS

2:39 PM CDT on July 25, 2017 (GMT -0500)
Johnson County Executive

Weather History for KOJC - October, 2013

Change the Weather History Date:

Tuesday, October 8, 2013

  Actual Average Record
Temperature  
Mean Temperature 61 °F 60 °F  
Max Temperature 74 °F 70 °F 90 °F (1939)
Min Temperature 47 °F 50 °F 28 °F (2000)
Degree Days  
Heating Degree Days 4 7  
Month to date heating degree days 36 45  
Since 1 July heating degree days 63 94  
Cooling Degree Days 0 1  
Month to date cooling degree days 30 15  
Year to date cooling degree days 1359 1336  
Growing Degree Days 10 (Base 50)    
Moisture  
Dew Point 45 °F    
Average Humidity 58    
Maximum Humidity 80    
Minimum Humidity 35    
Precipitation  
Precipitation 0.00 in 0.11 in 0.82 in (1992)
Month to date precipitation 0.46 1.00  
Year to date precipitation 29.96 33.47  
Sea Level Pressure  
Sea Level Pressure 30.07 in    
Wind  
Wind Speed 9 mph (SSE)    
Max Wind Speed 20 mph    
Max Gust Speed 26 mph    
Visibility 10 miles    
Events      
T = Trace of Precipitation, MM = Missing Value Source: NWS Daily Summary

Daily Weather History Graph

Daily Weather History Graph

Search for Another Location

Airport or City:

Trip Planner

Search our weather history database for the weather conditions in past years. The results will help you decide how hot, cold, wet, or windy it might be!

Date:

Astronomy

Oct. 08, 2013 Rise Set
Actual Time 7:21 AM CDT 6:50 PM CDT
Civil Twilight 6:55 AM CDT 7:17 PM CDT
Nautical Twilight 6:24 AM CDT 7:47 PM CDT
Astronomical Twilight 5:53 AM CDT 8:18 PM CDT
Moon 11:14 AM CDT (10/8) 9:30 PM CDT (10/8)
Length of Visible Light 12h 21m
Length of Day
11h 28m
Waxing Crescent, 16% of the Moon is Illuminated
Oct 8
Waxing Crescent
Oct 11
First Quarter
Oct 18
Full
Oct 26
Last Quarter
Nov 3
New

Hourly Weather History & Observations

Time (CDT) Temp. Dew Point Humidity Pressure Visibility Wind Dir Wind Speed Gust Speed Precip Events Conditions
12:53 AM 51.1 °F 44.1 °F 77% 30.09 in 10.0 mi South 4.6 mph - N/A   Clear
1:53 AM 50.0 °F 44.1 °F 80% 30.10 in 10.0 mi SSE 5.8 mph - N/A   Clear
2:53 AM 50.0 °F 43.0 °F 77% 30.10 in 10.0 mi South 5.8 mph - N/A   Clear
3:53 AM 50.0 °F 43.0 °F 77% 30.09 in 10.0 mi SSE 5.8 mph - N/A   Clear
4:53 AM 50.0 °F 43.0 °F 77% 30.09 in 10.0 mi South 3.5 mph - N/A   Clear
5:53 AM 50.0 °F 43.0 °F 77% 30.10 in 10.0 mi South 3.5 mph - N/A   Clear
6:53 AM 48.0 °F 42.1 °F 80% 30.10 in 10.0 mi SSE 3.5 mph - N/A   Clear
7:53 AM 48.0 °F 43.0 °F 83% 30.10 in 10.0 mi SSE 3.5 mph - N/A   Clear
8:53 AM 55.0 °F 48.0 °F 77% 30.11 in 10.0 mi South 11.5 mph - N/A   Clear
9:53 AM 61.0 °F 48.9 °F 64% 30.11 in 10.0 mi South 11.5 mph - N/A   Clear
10:53 AM 66.0 °F 48.0 °F 52% 30.10 in 10.0 mi South 15.0 mph 21.9 mph N/A   Clear
11:53 AM 68.0 °F 46.0 °F 45% 30.10 in 10.0 mi South 12.7 mph 23.0 mph N/A   Clear
12:53 PM 71.1 °F 46.9 °F 42% 30.09 in 10.0 mi South 15.0 mph 21.9 mph N/A   Clear
1:53 PM 72.0 °F 44.1 °F 37% 30.06 in 10.0 mi South 11.5 mph 23.0 mph N/A   Clear
2:53 PM 73.0 °F 44.1 °F 35% 30.04 in 10.0 mi SSE 16.1 mph 21.9 mph N/A   Clear
3:53 PM 73.0 °F 45.0 °F 37% 30.02 in 10.0 mi SSE 12.7 mph - N/A   Clear
4:53 PM 73.0 °F 45.0 °F 37% 30.01 in 10.0 mi South 12.7 mph - N/A   Clear
5:53 PM 71.1 °F 45.0 °F 39% 30.01 in 10.0 mi South 13.8 mph - N/A   Clear
6:53 PM 66.0 °F 46.0 °F 48% 30.02 in 10.0 mi SSE 10.4 mph - N/A   Clear
7:53 PM 63.0 °F 46.9 °F 56% 30.03 in 10.0 mi SSE 9.2 mph - N/A   Clear
8:53 PM 61.0 °F 48.0 °F 62% 30.03 in 10.0 mi SSE 9.2 mph - N/A   Clear
9:53 PM 59.0 °F 48.0 °F 67% 30.04 in 10.0 mi SSE 8.1 mph - N/A   Clear
10:53 PM 57.9 °F 48.0 °F 70% 30.03 in 10.0 mi SSE 9.2 mph - N/A   Clear
11:53 PM 55.0 °F 46.9 °F 74% 30.03 in 10.0 mi South 8.1 mph - N/A   Clear